| time (UTC) | temp F | wind direction | speed MPH | gust MPH | rain 1hr in | rain 24hr in | rain mn in | humidity % | barometer mb |
| 20260503220006 | 60 | 240 | 2.0 | 10.0 | 0.00 | 0.00 | 0.00 | 23 | 1014.1 |
| 20260503215652 | 60 | 305 | 2.0 | 10.0 | 0.00 | 0.00 | 0.00 | 22 | 1014.1 |
| 20260503215348 | 60 | 298 | 2.0 | 11.0 | 0.00 | 0.00 | 0.00 | 23 | 1014.1 |
| 20260503215037 | 60 | 133 | 3.0 | 11.0 | 0.00 | 0.00 | 0.00 | 24 | 1014.2 |
| 20260503214319 | 61 | 278 | 5.0 | 16.0 | 0.00 | 0.00 | 0.00 | 22 | 1014.2 |
| 20260503213544 | 61 | 286 | 5.0 | 16.0 | 0.00 | 0.00 | 0.00 | 23 | 1014.0 |
| 20260503212829 | 61 | 295 | 6.0 | 16.0 | 0.00 | 0.00 | 0.00 | 21 | 1014.1 |
| 20260503212518 | 61 | 269 | 5.0 | 16.0 | 0.00 | 0.00 | 0.00 | 21 | 1014.2 |
| 20260503212216 | 61 | 288 | 4.0 | 13.0 | 0.00 | 0.00 | 0.00 | 23 | 1014.1 |
| 20260503211919 | 61 | 275 | 2.0 | 10.0 | 0.00 | 0.00 | 0.00 | 21 | 1014.0 |
| 20260503211617 | 61 | 305 | 2.0 | 9.0 | 0.00 | 0.00 | 0.00 | 24 | 1014.0 |
| 20260503211321 | 61 | 298 | 3.0 | 15.0 | 0.00 | 0.00 | 0.00 | 23 | 1014.0 |
| 20260503211025 | 61 | 278 | 4.0 | 15.0 | 0.00 | 0.00 | 0.00 | 24 | 1014.0 |
| 20260503210717 | 61 | 305 | 4.0 | 15.0 | 0.00 | 0.00 | 0.00 | 22 | 1014.1 |
| 20260503210411 | 61 | 292 | 4.0 | 15.0 | 0.00 | 0.00 | 0.00 | 21 | 1014.2 |
| 20260503210101 | 61 | 335 | 4.0 | 15.0 | 0.00 | 0.00 | 0.00 | 21 | 1014.1 |
| 20260503205751 | 62 | 290 | 5.0 | 15.0 | 0.00 | 0.00 | 0.00 | 20 | 1014.1 |
| 20260503205443 | 62 | 238 | 5.0 | 14.0 | 0.00 | 0.00 | 0.00 | 21 | 1014.1 |
| 20260503205130 | 62 | 246 | 5.0 | 14.0 | 0.00 | 0.00 | 0.00 | 21 | 1014.2 |
| 20260503204816 | 62 | 247 | 4.0 | 14.0 | 0.00 | 0.00 | 0.00 | 21 | 1014.1 |
| 20260503204514 | 62 | 41 | 5.0 | 14.0 | 0.00 | 0.00 | 0.00 | 22 | 1014.1 |
| 20260503204201 | 62 | 263 | 4.0 | 13.0 | 0.00 | 0.00 | 0.00 | 23 | 1014.2 |
| 20260503203901 | 62 | 260 | 4.0 | 11.0 | 0.00 | 0.00 | 0.00 | 23 | 1014.2 |
| 20260503203558 | 62 | 346 | 4.0 | 15.0 | 0.00 | 0.00 | 0.00 | 22 | 1014.2 |
| 20260503203255 | 62 | 287 | 3.0 | 15.0 | 0.00 | 0.00 | 0.00 | 21 | 1014.2 |
| 20260503202538 | 62 | 310 | 5.0 | 15.0 | 0.00 | 0.00 | 0.00 | 21 | 1014.3 |
| 20260503202234 | 62 | 283 | 6.0 | 15.0 | 0.00 | 0.00 | 0.00 | 21 | 1014.3 |
| 20260503201937 | 63 | 0 | 5.0 | 15.0 | 0.00 | 0.00 | 0.00 | 22 | 1014.3 |
| 20260503201635 | 63 | 279 | 3.0 | 12.0 | 0.00 | 0.00 | 0.00 | 21 | 1014.3 |
| 20260503201327 | 62 | 340 | 2.0 | 17.0 | 0.00 | 0.00 | 0.00 | 26 | 1014.4 |
| 20260503201027 | 62 | 272 | 3.0 | 17.0 | 0.00 | 0.00 | 0.00 | 25 | 1014.2 |
| 20260503200726 | 62 | 319 | 4.0 | 17.0 | 0.00 | 0.00 | 0.00 | 23 | 1014.3 |
| 20260503200414 | 62 | 0 | 4.0 | 18.0 | 0.00 | 0.00 | 0.00 | 22 | 1014.4 |
| 20260503195653 | 62 | 283 | 6.0 | 18.0 | 0.00 | 0.00 | 0.00 | 24 | 1014.4 |
| 20260503195357 | 62 | 311 | 7.0 | 18.0 | 0.00 | 0.00 | 0.00 | 21 | 1014.5 |
| 20260503195046 | 62 | 281 | 7.0 | 18.0 | 0.00 | 0.00 | 0.00 | 23 | 1014.6 |
| 20260503194330 | 61 | 5 | 4.0 | 11.0 | 0.00 | 0.00 | 0.00 | 21 | 1014.4 |
| 20260503194027 | 62 | 204 | 4.0 | 10.0 | 0.00 | 0.00 | 0.00 | 21 | 1014.6 |
| 20260503193728 | 62 | 5 | 4.0 | 16.0 | 0.00 | 0.00 | 0.00 | 26 | 1014.7 |
| 20260503193415 | 62 | 265 | 5.0 | 16.0 | 0.00 | 0.00 | 0.00 | 25 | 1014.8 |
| 20260503193103 | 62 | 5 | 6.0 | 16.0 | 0.00 | 0.00 | 0.00 | 24 | 1014.7 |
| 20260503192753 | 61 | 236 | 6.0 | 16.0 | 0.00 | 0.00 | 0.00 | 22 | 1014.8 |
| 20260503192449 | 61 | 262 | 5.0 | 16.0 | 0.00 | 0.00 | 0.00 | 26 | 1014.8 |
| 20260503192148 | 61 | 17 | 5.0 | 16.0 | 0.00 | 0.00 | 0.00 | 24 | 1014.9 |
| 20260503191843 | 61 | 268 | 5.0 | 15.0 | 0.00 | 0.00 | 0.00 | 22 | 1015.0 |
| 20260503191546 | 61 | 323 | 5.0 | 15.0 | 0.00 | 0.00 | 0.00 | 21 | 1014.9 |
| 20260503191242 | 61 | 246 | 6.0 | 15.0 | 0.00 | 0.00 | 0.00 | 21 | 1014.9 |
| 20260503190936 | 61 | 258 | 6.0 | 15.0 | 0.00 | 0.00 | 0.00 | 22 | 1015.0 |
| 20260503190208 | 61 | 166 | 6.0 | 12.0 | 0.00 | 0.00 | 0.00 | 22 | 1015.0 |
| 20260503185901 | 61 | 0 | 5.0 | 12.0 | 0.00 | 0.00 | 0.00 | 22 | 1015.1 |
| 20260503185558 | 61 | 281 | 4.0 | 12.0 | 0.00 | 0.00 | 0.00 | 23 | 1015.1 |
| 20260503184838 | 61 | 247 | 4.0 | 13.0 | 0.00 | 0.00 | 0.00 | 22 | 1015.3 |
| 20260503184540 | 61 | 302 | 4.0 | 13.0 | 0.00 | 0.00 | 0.00 | 23 | 1015.4 |
| 20260503184231 | 61 | 279 | 5.0 | 13.0 | 0.00 | 0.00 | 0.00 | 21 | 1015.4 |
| 20260503183931 | 61 | 332 | 4.0 | 14.0 | 0.00 | 0.00 | 0.00 | 27 | 1015.5 |
| 20260503183632 | 61 | 288 | 4.0 | 14.0 | 0.00 | 0.00 | 0.00 | 22 | 1015.5 |
| 20260503182914 | 61 | 259 | 6.0 | 16.0 | 0.00 | 0.00 | 0.00 | 22 | 1015.5 |
| 20260503182600 | 61 | 259 | 6.0 | 16.0 | 0.00 | 0.00 | 0.00 | 21 | 1015.5 |
| 20260503182250 | 61 | 314 | 5.0 | 16.0 | 0.00 | 0.00 | 0.00 | 22 | 1015.5 |
| 20260503181946 | 61 | 321 | 5.0 | 16.0 | 0.00 | 0.00 | 0.00 | 24 | 1015.4 |
| 20260503180759 | 60 | 218 | 4.0 | 16.0 | 0.00 | 0.00 | 0.00 | 22 | 1015.5 |
| 20260503180500 | 60 | 266 | 4.0 | 16.0 | 0.00 | 0.00 | 0.00 | 21 | 1015.6 |
| 20260503180153 | 60 | 286 | 3.0 | 19.0 | 0.00 | 0.00 | 0.00 | 26 | 1015.4 |
| 20260503175853 | 60 | 288 | 4.0 | 19.0 | 0.00 | 0.00 | 0.00 | 22 | 1015.5 |
| 20260503175542 | 60 | 277 | 4.0 | 19.0 | 0.00 | 0.00 | 0.00 | 21 | 1015.6 |
| 20260503175244 | 60 | 259 | 5.0 | 19.0 | 0.00 | 0.00 | 0.00 | 23 | 1015.6 |
| 20260503174940 | 59 | 192 | 5.0 | 19.0 | 0.00 | 0.00 | 0.00 | 26 | 1015.6 |
| 20260503174628 | 59 | 306 | 5.0 | 19.0 | 0.00 | 0.00 | 0.00 | 23 | 1015.7 |
| 20260503174316 | 58 | 295 | 5.0 | 19.0 | 0.00 | 0.00 | 0.00 | 26 | 1015.6 |
| 20260503174016 | 58 | 277 | 4.0 | 15.0 | 0.00 | 0.00 | 0.00 | 25 | 1015.6 |
| 20260503173714 | 58 | 226 | 5.0 | 15.0 | 0.00 | 0.00 | 0.00 | 25 | 1015.8 |
| 20260503173402 | 58 | 217 | 6.0 | 15.0 | 0.00 | 0.00 | 0.00 | 24 | 1015.8 |
| 20260503173059 | 57 | 294 | 6.0 | 15.0 | 0.00 | 0.00 | 0.00 | 29 | 1015.8 |
| 20260503172757 | 57 | 291 | 6.0 | 15.0 | 0.00 | 0.00 | 0.00 | 24 | 1015.9 |
| 20260503172043 | 57 | 155 | 3.0 | 14.0 | 0.00 | 0.00 | 0.00 | 26 | 1015.9 |
| 20260503171733 | 57 | 273 | 3.0 | 14.0 | 0.00 | 0.00 | 0.00 | 25 | 1015.9 |
| 20260503171427 | 57 | 0 | 3.0 | 14.0 | 0.00 | 0.00 | 0.00 | 25 | 1015.9 |
| 20260503171131 | 57 | 197 | 3.0 | 17.0 | 0.00 | 0.00 | 0.00 | 28 | 1016.0 |
| 20260503170414 | 56 | 22 | 5.0 | 17.0 | 0.00 | 0.00 | 0.00 | 26 | 1016.1 |
| 20260503140143 | 48 | 346 | 5.0 | 13.0 | 0.00 | 0.01 | 0.00 | 32 | 1017.2 |
| 20260503130534 | 47 | 350 | 5.0 | 12.0 | 0.00 | 0.01 | 0.00 | 35 | 1017.7 |
| 20260503130221 | 47 | 254 | 4.0 | 13.0 | 0.00 | 0.01 | 0.00 | 36 | 1017.7 |
| 20260503120136 | 45 | 254 | 4.0 | 10.0 | 0.00 | 0.01 | 0.00 | 41 | 1017.4 |
| 20260503110634 | 40 | 276 | 3.0 | 9.0 | 0.00 | 0.01 | 0.00 | 51 | 1017.0 |
| 20260503110326 | 40 | 275 | 2.0 | 9.0 | 0.00 | 0.01 | 0.00 | 52 | 1017.0 |
| 20260503090405 | 39 | 281 | 0.0 | 2.0 | 0.00 | 0.01 | 0.00 | 49 | 1015.7 |
| 20260503081512 | 41 | 215 | 1.0 | 8.0 | 0.00 | 0.01 | 0.00 | 47 | 1015.5 |
| 20260503081211 | 41 | 300 | 2.0 | 8.0 | 0.00 | 0.01 | 0.00 | 47 | 1015.4 |
| 20260503080904 | 41 | 281 | 1.0 | 8.0 | 0.00 | 0.01 | 0.00 | 47 | 1015.4 |
| 20260503080142 | 41 | 249 | 0.0 | 6.0 | 0.00 | 0.01 | 0.00 | 46 | 1015.4 |
| 20260503072832 | 43 | 286 | 1.0 | 6.0 | 0.00 | 0.01 | 0.00 | 45 | 1015.0 |
| 20260503072104 | 43 | 273 | 2.0 | 6.0 | 0.00 | 0.01 | 0.00 | 45 | 1014.9 |
| 20260503071802 | 43 | 296 | 1.0 | 9.0 | 0.00 | 0.01 | 0.00 | 45 | 1014.9 |
| 20260503071455 | 43 | 240 | 1.0 | 9.0 | 0.00 | 0.01 | 0.00 | 45 | 1014.8 |
| 20260503071144 | 43 | 342 | 1.0 | 9.0 | 0.00 | 0.01 | 0.00 | 45 | 1014.8 |
| 20260503070848 | 43 | 280 | 2.0 | 9.0 | 0.00 | 0.01 | 0.00 | 45 | 1014.7 |
| 20260503070546 | 43 | 277 | 2.0 | 9.0 | 0.00 | 0.01 | 0.00 | 45 | 1014.6 |
| 20260503070245 | 44 | 294 | 2.0 | 9.0 | 0.00 | 0.01 | 0.00 | 45 | 1014.6 |
| 20260503060238 | 44 | 301 | 1.0 | 5.0 | 0.00 | 0.01 | 0.00 | 46 | 1014.8 |
| 20260503055013 | 44 | 271 | 2.0 | 6.0 | 0.00 | 0.01 | 0.00 | 46 | 1014.8 |
| 20260503054707 | 44 | 327 | 1.0 | 6.0 | 0.00 | 0.01 | 0.00 | 47 | 1014.9 |
| 20260503054403 | 44 | 288 | 1.0 | 6.0 | 0.00 | 0.01 | 0.00 | 47 | 1014.8 |
| 20260503054106 | 44 | 302 | 1.0 | 6.0 | 0.00 | 0.01 | 0.00 | 48 | 1014.8 |
| 20260503053759 | 44 | 207 | 1.0 | 5.0 | 0.00 | 0.01 | 0.00 | 48 | 1014.8 |
| 20260503053451 | 44 | 271 | 1.0 | 5.0 | 0.00 | 0.01 | 0.00 | 48 | 1014.9 |
| 20260503053140 | 44 | 271 | 1.0 | 10.0 | 0.00 | 0.01 | 0.00 | 48 | 1014.9 |
| 20260503052833 | 44 | 348 | 1.0 | 10.0 | 0.00 | 0.01 | 0.00 | 49 | 1014.9 |
| 20260503052118 | 43 | 196 | 2.0 | 10.0 | 0.00 | 0.01 | 0.00 | 51 | 1014.9 |
| 20260503051815 | 43 | 296 | 2.0 | 10.0 | 0.00 | 0.01 | 0.00 | 51 | 1014.9 |
| 20260503051512 | 43 | 342 | 1.0 | 10.0 | 0.00 | 0.01 | 0.00 | 52 | 1015.0 |
| 20260503051205 | 43 | 237 | 0.0 | 3.0 | 0.00 | 0.01 | 0.00 | 52 | 1015.0 |
| 20260503050854 | 43 | 207 | 0.0 | 3.0 | 0.00 | 0.01 | 0.00 | 51 | 1015.0 |
| 20260503050553 | 43 | 229 | 0.0 | 3.0 | 0.00 | 0.01 | 0.00 | 52 | 1015.0 |
| 20260503050248 | 43 | 302 | 0.0 | 3.0 | 0.00 | 0.01 | 0.00 | 52 | 1015.0 |
| 20260503045944 | 43 | 326 | 0.0 | 3.0 | 0.00 | 0.01 | 0.00 | 52 | 1015.0 |
| 20260503045636 | 43 | 229 | 1.0 | 4.0 | 0.00 | 0.01 | 0.00 | 52 | 1015.1 |
| 20260503045335 | 43 | 225 | 0.0 | 5.0 | 0.00 | 0.01 | 0.00 | 51 | 1015.2 |
| 20260503045022 | 43 | 313 | 0.0 | 5.0 | 0.00 | 0.01 | 0.00 | 51 | 1015.1 |
| 20260503044720 | 43 | 290 | 1.0 | 5.0 | 0.00 | 0.01 | 0.00 | 51 | 1015.2 |
| 20260503044424 | 44 | 296 | 1.0 | 8.0 | 0.00 | 0.01 | 0.00 | 51 | 1015.2 |
| 20260503044123 | 44 | 306 | 1.0 | 8.0 | 0.00 | 0.01 | 0.00 | 51 | 1015.3 |
| 20260503043821 | 44 | 167 | 1.0 | 8.0 | 0.00 | 0.01 | 0.00 | 51 | 1015.2 |
| 20260503043511 | 44 | 305 | 2.0 | 8.0 | 0.00 | 0.01 | 0.00 | 51 | 1015.2 |
| 20260503043205 | 44 | 288 | 2.0 | 8.0 | 0.00 | 0.01 | 0.00 | 50 | 1015.1 |
| 20260503042900 | 44 | 329 | 2.0 | 8.0 | 0.00 | 0.01 | 0.00 | 50 | 1015.2 |
| 20260503042559 | 44 | 250 | 2.0 | 8.0 | 0.00 | 0.01 | 0.00 | 51 | 1015.0 |
| 20260503042304 | 44 | 271 | 2.0 | 7.0 | 0.00 | 0.01 | 0.00 | 51 | 1015.1 |
| 20260503041532 | 45 | 279 | 1.0 | 6.0 | 0.00 | 0.01 | 0.00 | 50 | 1015.3 |
| 20260503041229 | 45 | 275 | 1.0 | 5.0 | 0.00 | 0.01 | 0.00 | 50 | 1015.1 |
| 20260503040927 | 45 | 296 | 1.0 | 12.0 | 0.00 | 0.01 | 0.00 | 50 | 1015.2 |
| 20260503040203 | 45 | 240 | 3.0 | 12.0 | 0.00 | 0.01 | 0.00 | 49 | 1015.1 |
| 20260503035852 | 45 | 276 | 4.0 | 12.0 | 0.00 | 0.01 | 0.01 | 49 | 1015.1 |
| 20260503035544 | 45 | 319 | 4.0 | 12.0 | 0.00 | 0.01 | 0.01 | 49 | 1015.2 |
| 20260503035237 | 45 | 298 | 3.0 | 12.0 | 0.00 | 0.01 | 0.01 | 49 | 1015.2 |
| 20260503034941 | 45 | 288 | 2.0 | 9.0 | 0.00 | 0.01 | 0.01 | 49 | 1015.2 |
| 20260503034628 | 45 | 284 | 1.0 | 9.0 | 0.00 | 0.01 | 0.01 | 48 | 1015.2 |
| 20260503034327 | 46 | 272 | 1.0 | 6.0 | 0.00 | 0.01 | 0.01 | 48 | 1015.0 |
| 20260503034018 | 46 | 235 | 1.0 | 9.0 | 0.00 | 0.02 | 0.01 | 48 | 1015.0 |
| 20260503033239 | 46 | 322 | 1.0 | 9.0 | 0.00 | 0.02 | 0.01 | 48 | 1015.2 |
| 20260503032930 | 46 | 288 | 2.0 | 9.0 | 0.00 | 0.02 | 0.01 | 48 | 1015.1 |
| 20260503032619 | 46 | 311 | 2.0 | 9.0 | 0.00 | 0.02 | 0.01 | 48 | 1015.1 |
| 20260503032321 | 46 | 301 | 2.0 | 9.0 | 0.00 | 0.02 | 0.01 | 48 | 1015.1 |
| 20260503032015 | 46 | 203 | 2.0 | 7.0 | 0.00 | 0.02 | 0.01 | 49 | 1015.2 |
| 20260503031245 | 46 | 294 | 2.0 | 8.0 | 0.00 | 0.02 | 0.01 | 49 | 1015.4 |
| 20260503030945 | 46 | 315 | 1.0 | 8.0 | 0.00 | 0.03 | 0.01 | 48 | 1015.4 |
| 20260503030649 | 46 | 271 | 1.0 | 8.0 | 0.00 | 0.03 | 0.01 | 49 | 1015.3 |
| 20260503030345 | 46 | 281 | 1.0 | 8.0 | 0.00 | 0.03 | 0.01 | 48 | 1015.4 |
| 20260503030031 | 46 | 236 | 2.0 | 8.0 | 0.00 | 0.03 | 0.01 | 48 | 1015.5 |
| 20260503025723 | 47 | 272 | 2.0 | 8.0 | 0.00 | 0.03 | 0.01 | 48 | 1015.4 |
| 20260503025009 | 47 | 256 | 2.0 | 7.0 | 0.00 | 0.03 | 0.01 | 48 | 1015.5 |
| 20260503024708 | 47 | 322 | 2.0 | 7.0 | 0.00 | 0.03 | 0.01 | 48 | 1015.5 |
| 20260503024405 | 47 | 245 | 2.0 | 8.0 | 0.00 | 0.03 | 0.01 | 48 | 1015.6 |
| 20260503024058 | 47 | 268 | 2.0 | 8.0 | 0.00 | 0.03 | 0.01 | 48 | 1015.6 |
| 20260503023754 | 47 | 284 | 2.0 | 8.0 | 0.00 | 0.03 | 0.01 | 48 | 1015.5 |
| 20260503023451 | 47 | 291 | 2.0 | 11.0 | 0.00 | 0.03 | 0.01 | 48 | 1015.5 |
| 20260503023154 | 47 | 271 | 1.0 | 11.0 | 0.00 | 0.03 | 0.01 | 48 | 1015.5 |
| 20260503022855 | 47 | 280 | 2.0 | 11.0 | 0.00 | 0.03 | 0.01 | 48 | 1015.4 |
| 20260503022543 | 47 | 275 | 3.0 | 11.0 | 0.00 | 0.03 | 0.01 | 48 | 1015.5 |
| 20260503022229 | 47 | 252 | 3.0 | 11.0 | 0.00 | 0.03 | 0.01 | 47 | 1015.4 |
| 20260503021928 | 47 | 289 | 2.0 | 11.0 | 0.00 | 0.03 | 0.01 | 48 | 1015.5 |
| 20260503021624 | 47 | 273 | 2.0 | 11.0 | 0.00 | 0.03 | 0.01 | 47 | 1015.4 |
| 20260503021315 | 47 | 22 | 2.0 | 9.0 | 0.00 | 0.03 | 0.01 | 47 | 1015.5 |
| 20260503021016 | 47 | 308 | 2.0 | 9.0 | 0.00 | 0.03 | 0.01 | 48 | 1015.6 |
| 20260503020703 | 47 | 292 | 3.0 | 9.0 | 0.00 | 0.03 | 0.01 | 47 | 1015.5 |
| 20260503020401 | 47 | 286 | 2.0 | 9.0 | 0.00 | 0.03 | 0.01 | 48 | 1015.6 |
| 20260503015631 | 47 | 225 | 1.0 | 7.0 | 0.00 | 0.03 | 0.01 | 47 | 1015.6 |
| 20260503015323 | 47 | 221 | 1.0 | 7.0 | 0.00 | 0.03 | 0.01 | 47 | 1015.4 |
| 20260503015015 | 47 | 265 | 1.0 | 6.0 | 0.00 | 0.03 | 0.01 | 47 | 1015.5 |
| 20260503014715 | 47 | 268 | 1.0 | 6.0 | 0.00 | 0.03 | 0.01 | 47 | 1015.5 |
| 20260503014405 | 47 | 263 | 1.0 | 6.0 | 0.00 | 0.03 | 0.01 | 47 | 1015.5 |
| 20260503013632 | 47 | 282 | 1.0 | 6.0 | 0.00 | 0.03 | 0.01 | 47 | 1015.5 |
| 20260503013320 | 47 | 270 | 1.0 | 6.0 | 0.00 | 0.03 | 0.01 | 47 | 1015.4 |
| 20260503013009 | 48 | 313 | 2.0 | 9.0 | 0.00 | 0.03 | 0.01 | 47 | 1015.5 |
| 20260503012709 | 48 | 211 | 2.0 | 9.0 | 0.00 | 0.03 | 0.01 | 46 | 1015.4 |
| 20260503012407 | 48 | 232 | 2.0 | 9.0 | 0.00 | 0.03 | 0.01 | 45 | 1015.4 |
| 20260503012100 | 48 | 311 | 2.0 | 9.0 | 0.00 | 0.03 | 0.01 | 46 | 1015.4 |
| 20260503011804 | 48 | 296 | 2.0 | 9.0 | 0.00 | 0.03 | 0.01 | 46 | 1015.4 |
| 20260503011507 | 48 | 241 | 2.0 | 9.0 | 0.00 | 0.03 | 0.01 | 46 | 1015.2 |
| 20260503005858 | 48 | 320 | 1.0 | 7.0 | 0.00 | 0.03 | 0.01 | 47 | 1015.1 |
| 20260503005554 | 48 | 255 | 1.0 | 7.0 | 0.00 | 0.03 | 0.01 | 47 | 1015.2 |
| 20260503005249 | 48 | 242 | 2.0 | 7.0 | 0.00 | 0.03 | 0.01 | 46 | 1015.0 |
| 20260503004940 | 48 | 290 | 1.0 | 7.0 | 0.00 | 0.03 | 0.01 | 47 | 1015.0 |
| 20260503003748 | 48 | 303 | 1.0 | 6.0 | 0.00 | 0.03 | 0.01 | 46 | 1015.0 |
| 20260503003448 | 48 | 298 | 1.0 | 6.0 | 0.00 | 0.03 | 0.01 | 46 | 1015.0 |
| 20260503003136 | 48 | 268 | 1.0 | 6.0 | 0.00 | 0.03 | 0.01 | 45 | 1014.9 |
| 20260503002827 | 49 | 277 | 1.0 | 12.0 | 0.00 | 0.03 | 0.01 | 46 | 1014.9 |
| 20260503002517 | 49 | 283 | 2.0 | 12.0 | 0.00 | 0.03 | 0.01 | 45 | 1014.9 |
| 20260503002210 | 49 | 285 | 3.0 | 12.0 | 0.00 | 0.03 | 0.01 | 46 | 1015.0 |
| 20260503001908 | 49 | 281 | 3.0 | 12.0 | 0.00 | 0.03 | 0.01 | 45 | 1014.9 |
| 20260503001140 | 49 | 302 | 2.0 | 12.0 | 0.00 | 0.03 | 0.01 | 45 | 1014.8 |
| 20260503000841 | 49 | 284 | 2.0 | 11.0 | 0.00 | 0.03 | 0.01 | 44 | 1014.8 |
| 20260503000533 | 49 | 312 | 2.0 | 11.0 | 0.00 | 0.03 | 0.01 | 43 | 1014.7 |
| 20260503000233 | 49 | 317 | 2.0 | 11.0 | 0.00 | 0.03 | 0.01 | 44 | 1014.7 |
| 20260502235925 | 49 | 288 | 3.0 | 11.0 | 0.00 | 0.03 | 0.01 | 43 | 1014.8 |
| 20260502235627 | 50 | 313 | 4.0 | 11.0 | 0.00 | 0.03 | 0.01 | 44 | 1014.7 |
| 20260502235316 | 50 | 303 | 4.0 | 11.0 | 0.00 | 0.03 | 0.01 | 43 | 1014.7 |
| 20260502235018 | 50 | 311 | 3.0 | 11.0 | 0.00 | 0.03 | 0.01 | 42 | 1014.7 |
| 20260502234716 | 50 | 326 | 2.0 | 10.0 | 0.00 | 0.03 | 0.01 | 43 | 1014.6 |
| 20260502234418 | 50 | 328 | 3.0 | 7.0 | 0.00 | 0.03 | 0.01 | 42 | 1014.6 |
| 20260502234115 | 50 | 240 | 2.0 | 7.0 | 0.00 | 0.03 | 0.01 | 42 | 1014.5 |
| 20260502233804 | 50 | 298 | 3.0 | 11.0 | 0.00 | 0.03 | 0.01 | 42 | 1014.4 |
| 20260502233501 | 50 | 263 | 3.0 | 11.0 | 0.00 | 0.03 | 0.01 | 42 | 1014.4 |
| 20260502233155 | 50 | 260 | 4.0 | 11.0 | 0.00 | 0.03 | 0.01 | 42 | 1014.4 |
| 20260502232854 | 50 | 311 | 4.0 | 12.0 | 0.00 | 0.03 | 0.01 | 41 | 1014.4 |
| 20260502232546 | 51 | 42 | 4.0 | 12.0 | 0.00 | 0.03 | 0.01 | 42 | 1014.3 |
| 20260502232245 | 51 | 46 | 4.0 | 12.0 | 0.00 | 0.03 | 0.01 | 41 | 1014.3 |
| 20260502231941 | 51 | 201 | 4.0 | 12.0 | 0.00 | 0.03 | 0.01 | 40 | 1014.2 |
| 20260502231642 | 51 | 336 | 4.0 | 12.0 | 0.00 | 0.03 | 0.01 | 40 | 1014.2 |
| 20260502231341 | 52 | 274 | 3.0 | 12.0 | 0.00 | 0.03 | 0.01 | 39 | 1014.2 |
| 20260502231037 | 52 | 342 | 3.0 | 12.0 | 0.00 | 0.03 | 0.01 | 39 | 1014.1 |
| 20260502230259 | 52 | 315 | 3.0 | 9.0 | 0.00 | 0.03 | 0.01 | 39 | 1014.0 |
| 20260502230001 | 52 | 309 | 3.0 | 11.0 | 0.00 | 0.03 | 0.01 | 39 | 1013.9 |
| 20260502225653 | 52 | 316 | 3.0 | 11.0 | 0.00 | 0.03 | 0.01 | 37 | 1013.9 |
| 20260502225339 | 53 | 311 | 3.0 | 11.0 | 0.00 | 0.03 | 0.01 | 37 | 1014.0 |
| 20260502225041 | 53 | 290 | 4.0 | 12.0 | 0.00 | 0.03 | 0.01 | 35 | 1013.9 |
| 20260502224310 | 53 | 348 | 3.0 | 12.0 | 0.00 | 0.03 | 0.01 | 34 | 1013.8 |
| 20260502223955 | 53 | 346 | 3.0 | 12.0 | 0.00 | 0.03 | 0.01 | 36 | 1013.8 |
| 20260502223654 | 54 | 317 | 3.0 | 12.0 | 0.00 | 0.02 | 0.01 | 34 | 1013.8 |
| 20260502222916 | 54 | 5 | 4.0 | 11.0 | 0.00 | 0.02 | 0.00 | 32 | 1013.7 |
| 20260502222618 | 54 | 255 | 4.0 | 11.0 | 0.00 | 0.02 | 0.00 | 32 | 1013.8 |
| 20260502222307 | 54 | 269 | 3.0 | 11.0 | 0.00 | 0.02 | 0.00 | 33 | 1013.8 |
| 20260502222001 | 54 | 299 | 3.0 | 11.0 | 0.00 | 0.02 | 0.00 | 33 | 1013.8 |
| 20260502221648 | 55 | 298 | 3.0 | 10.0 | 0.00 | 0.02 | 0.00 | 32 | 1013.6 |
| 20260502221342 | 55 | 286 | 3.0 | 10.0 | 0.00 | 0.02 | 0.00 | 33 | 1013.6 |
| 20260502221045 | 55 | 345 | 3.0 | 10.0 | 0.00 | 0.02 | 0.00 | 34 | 1013.6 |